Raleigh-Durham Airport, NC

11:56 PM EDT on March 22, 2017 (GMT -0400)
Raleigh-Durham International

Weather History for KRDU - August, 2013

Change the Weather History Date:

Saturday, August 3, 2013

  Actual Average Record
Temperature  
Mean Temperature 81 °F 80 °F  
Max Temperature 91 °F 90 °F 100 °F (1942)
Min Temperature 70 °F 70 °F 58 °F (1985)
Degree Days  
Heating Degree Days 0 0  
Month to date heating degree days 0 0  
Since 1 June heating degree days 0 4  
Since 1 July heating degree days 0 0  
Cooling Degree Days 16 15  
Month to date cooling degree days 43 45  
Year to date cooling degree days 998 1067  
Since 1 June cooling degree days 820 858  
Growing Degree Days 31 (Base 50)    
Moisture  
Dew Point 72 °F    
Average Humidity 78    
Maximum Humidity 100    
Minimum Humidity 56    
Precipitation  
Precipitation 2.30 in 0.14 in 5.27 in (1915)
Month to date precipitation 3.07 0.42  
Year to date precipitation 35.66 25.70  
Sea Level Pressure  
Sea Level Pressure 29.98 in    
Wind  
Wind Speed 6 mph (SW)    
Max Wind Speed 18 mph    
Max Gust Speed 23 mph    
Visibility 8 miles    
Events Rain , Thunderstorm    
T = Trace of Precipitation, MM = Missing Value Source: NWS Daily Summary

Daily Weather History Graph

Daily Weather History Graph

Search for Another Location

Airport or City:

Trip Planner

Search our weather history database for the weather conditions in past years. The results will help you decide how hot, cold, wet, or windy it might be!

Date:

Astronomy

Aug. 03, 2013 Rise Set
Actual Time 6:24 AM EDT 8:17 PM EDT
Civil Twilight 5:56 AM EDT 8:45 PM EDT
Nautical Twilight 5:22 AM EDT 9:19 PM EDT
Astronomical Twilight 4:46 AM EDT 9:55 PM EDT
Moon 3:33 AM EDT (8/3) 5:57 PM EDT (8/3)
Length of Visible Light 14h 49m
Length of Day
13h 53m
Waning Crescent, 9% of the Moon is Illuminated
Aug 3
Waning Crescent
Aug 6
New
Aug 14
First Quarter
Aug 20
Full
Aug 28
Last Quarter

Hourly Weather History & Observations

Time (EDT) Temp. Heat Index Dew Point Humidity Pressure Visibility Wind Dir Wind Speed Gust Speed Precip Events Conditions
12:51 AM 73.9 °F - 69.1 °F 85% 30.01 in 9.0 mi Calm Calm - N/A   Scattered Clouds
1:51 AM 73.9 °F - 71.1 °F 91% 30.01 in 9.0 mi Calm Calm - N/A   Scattered Clouds
2:51 AM 73.9 °F - 72.0 °F 93% 30.00 in 10.0 mi SSE 3.5 mph - N/A   Mostly Cloudy
3:51 AM 73.9 °F - 71.1 °F 91% 29.99 in 8.0 mi Calm Calm - N/A   Mostly Cloudy
4:51 AM 73.0 °F - 72.0 °F 96% 29.99 in 8.0 mi SW 3.5 mph - N/A   Mostly Cloudy
5:51 AM 73.0 °F - 72.0 °F 96% 30.00 in 6.0 mi WSW 4.6 mph - N/A   Mostly Cloudy
6:26 AM 75.2 °F - 73.4 °F 94% 30.02 in 6.0 mi WSW 6.9 mph - N/A   Overcast
6:51 AM 75.9 °F - 73.9 °F 94% 30.01 in 6.0 mi SW 8.1 mph - N/A   Overcast
7:51 AM 75.9 °F - 73.9 °F 94% 30.01 in 5.0 mi SW 6.9 mph - N/A   Mostly Cloudy
8:29 AM 78.8 °F - 75.2 °F 89% 30.03 in 6.0 mi SW 6.9 mph - N/A   Mostly Cloudy
8:51 AM 78.1 °F - 75.0 °F 90% 30.02 in 6.0 mi SW 8.1 mph - N/A   Mostly Cloudy
9:38 AM 78.8 °F - 75.2 °F 89% 30.03 in 6.0 mi WSW 8.1 mph - N/A   Overcast
9:51 AM 79.0 °F - 75.0 °F 88% 30.02 in 6.0 mi WSW 6.9 mph - N/A   Overcast
10:51 AM 80.1 °F 85.1 °F 75.0 °F 85% 30.01 in 7.0 mi WSW 10.4 mph - N/A   Overcast
11:44 AM 84.2 °F 92.3 °F 75.2 °F 74% 30.01 in 7.0 mi SW 9.2 mph - N/A   Mostly Cloudy
11:51 AM 84.9 °F 93.3 °F 75.0 °F 72% 29.99 in 9.0 mi WSW 9.2 mph - N/A   Mostly Cloudy
12:51 PM 88.0 °F 97.5 °F 75.0 °F 65% 29.99 in 10.0 mi WSW 10.4 mph - N/A   Mostly Cloudy
1:51 PM 89.1 °F 98.0 °F 73.9 °F 61% 29.97 in 10.0 mi SW 12.7 mph 18.4 mph N/A   Mostly Cloudy
2:51 PM 84.9 °F 90.1 °F 71.1 °F 63% 29.95 in 10.0 mi WSW 12.7 mph - N/A   Mostly Cloudy
3:51 PM 86.0 °F 91.5 °F 71.1 °F 61% 29.94 in 10.0 mi WSW 10.4 mph - N/A   Mostly Cloudy
4:51 PM 87.1 °F 92.8 °F 71.1 °F 59% 29.92 in 10.0 mi WSW 10.4 mph - N/A   Scattered Clouds
5:51 PM 90.0 °F 96.4 °F 71.1 °F 54% 29.91 in 10.0 mi WSW 9.2 mph - N/A   Mostly Cloudy
6:17 PM 84.2 °F 89.6 °F 71.6 °F 66% 29.92 in 10.0 mi WNW 5.8 mph - N/A Thunderstorm Thunderstorm
6:34 PM 75.2 °F - 73.4 °F 94% 29.94 in 1.0 mi WNW 6.9 mph 23.0 mph 0.27 in Rain , Thunderstorm Heavy Thunderstorms and Rain
6:51 PM 71.1 °F - 68.0 °F 90% 29.95 in 1.0 mi ENE 9.2 mph - 1.68 in Rain , Thunderstorm Heavy Thunderstorms and Rain
7:09 PM 71.6 °F - 68.0 °F 88% 29.95 in 2.0 mi SE 11.5 mph 23.0 mph 0.62 in Rain , Thunderstorm Light Thunderstorms and Rain
7:24 PM 71.6 °F - 69.8 °F 94% 29.95 in 8.0 mi ENE 9.2 mph - 0.62 in Thunderstorm Thunderstorm
7:44 PM 73.4 °F - 69.8 °F 88% 29.95 in 10.0 mi SSE 8.1 mph - 0.62 in   Mostly Cloudy
7:51 PM 73.0 °F - 69.1 °F 87% 29.93 in 10.0 mi SE 6.9 mph - 0.62 in   Mostly Cloudy
8:51 PM 73.0 °F - 71.1 °F 93% 29.94 in 10.0 mi Calm Calm - N/A   Scattered Clouds
9:51 PM 72.0 °F - 70.0 °F 93% 29.95 in 8.0 mi Calm Calm - N/A   Scattered Clouds
10:51 PM 72.0 °F - 71.1 °F 97% 29.95 in 8.0 mi Calm Calm - N/A   Scattered Clouds
11:51 PM 73.0 °F - 71.1 °F 93% 29.95 in 10.0 mi Calm Calm - N/A   Scattered Clouds